Location: Cañada de la Miga
(34.7595°N, 106.2317°W)
Time: 17:15:18
(UTC+00:00)

A-11 Canister half - Pass Details

Date: 07 December 2021
Orbit: 1516 x 1684 km, 47.2° (Epoch: 17 January)

Event Time Altitude Azimuth Distance (km) Brightness Sun altitude
Exits shadow 09:53:07 - 166° (SSE) 4,245 11.4 -49.8°
Reaches altitude 10° 09:56:10 10° 151° (SSE) 3,717 11.1 -49.1°
Maximum altitude 10:00:37 14° 122° (ESE) 3,411 11.1 -48.2°
Drops below altitude 10° 10:05:06 10° 93° (E) 3,783 11.6 -47.3°
Sets 10:10:12 0° 71° (ENE) 4,810 12.3 -46.3°
